Regional Weather Roundup
Issued by NWS Upton, NY

Current Version | Previous Version | Text Only | Print | Product List | Glossary Off
Versions: 1 2 3 4 5 6 7 8 9 10 11 12 13 14 15 16 17 18 19 20 21 22 23 24 25 26 27 28 29 30 31 32 33 34 35 36 37 38 39 40 41 42 43 44 45 46 47 48 49 50
000 ASUS41 KOKX 280408 RWROKX REGIONAL WEATHER ROUNDUP NATIONAL WEATHER SERVICE NEW YORK NY 1200 AM EDT THU MAY 28 2015 NOTE: "FAIR" INDICATES FEW OR NO CLOUDS BELOW 12,000 FEET WITH NO SIGNIFICANT WEATHER AND/OR OBSTRUCTIONS TO VISIBILITY. NYZ071-072-176-178-NJZ106-104-280500- NEW YORK CITY METRO AREA CITY SKY/WX TMP DP RH WIND PRES REMARKS CENTRAL PARK PTCLDY 71 67 87 SW3 30.16F LAGUARDIA APRT MOCLDY 68 61 78 S7 30.13F KENNEDY INTL MOCLDY 62 58 86 S9 30.16S NEWARK/LIBERTY MOCLDY 72 68 87 S8 30.14S BRNX BOT. GARD N/A 64 63 94 N1 30.15S TETERBORO PTCLDY 71 68 90 S3 30.12F $$ NYZ177-179-078>081-280500- LONG ISLAND NEW YORK CITY SKY/WX TMP DP RH WIND PRES REMARKS FARMINGDALE MOCLDY 65 60 84 S12 30.17S ISLIP CLOUDY 65 60 84 SW12 30.16S SHIRLEY MOCLDY 65 60 84 SW10G20 30.19S WESTHAMPTON MOCLDY 62 59 90 S7G21 30.20S MONTAUK POINT N/A 61 57 87 S7 30.20F $$ NYZ052-065-067-280500- HUDSON VALLEY CITY SKY/WX TMP DP RH WIND PRES REMARKS WHITE PLAINS PTCLDY 64 62 93 CALM 30.14F FOG NEWBURGH CLEAR 68 68 100 CALM 30.13F MONTGOMERY FOG 62 62 100 CALM 30.12S VSB 1/4 POUGHKEEPSIE CLEAR 66 65 96 CALM 30.11S ALBANY MOCLDY 69 65 86 S7 30.08R $$ NJZ001-105-106-008-010-013-015-019>022-104-280500- NEW JERSEY CITY SKY/WX TMP DP RH WIND PRES REMARKS NEWARK/LIBERTY MOCLDY 72 68 87 S8 30.14S TETERBORO PTCLDY 71 68 90 S3 30.12F CALDWELL PTCLDY 69 66 90 CALM 30.14F MORRISTOWN N/A 70 66 88 CALM 30.13F FOG SOMERVILLE FOG 67 64 90 CALM 30.12F VSB 1/4 SUSSEX PTCLDY 66 64 93 SW3 30.15F ANDOVER N/A 66 65 96 CALM 30.15S TRENTON MOCLDY 71 69 93 S9 30.15S MILLVILLE MOCLDY 72 66 81 CALM 30.17S ATLANTIC CITY CLOUDY 68 62 81 S8 30.19S WRIGHTSTOWN NOT AVBL TOMS RIVER MOCLDY N/A N/A N/A SW7 30.18R BELMAR MOCLDY 70 61 73 S8 30.17S $$ PAZ047>061-062-071-280500- EASTERN PENNSYLVANIA CITY SKY/WX TMP DP RH WIND PRES REMARKS PHILADELPHIA MOCLDY 73 70 90 S8 30.16S ALLENTOWN FOG 65 64 97 CALM 30.15S VSB 3/4 SCRANTON CLEAR 66 63 90 CALM 30.14R FOG $$ CTZ002-004>006-009-010-012-RIZ004-006-007-MAZ004-011-015-280500- SOUTHERN NEW ENGLAND IN CT CITY SKY/WX TMP DP RH WIND PRES REMARKS BRADLEY INTL CLOUDY 67 63 87 S7 30.11F HARTFORD CLOUDY 67 62 84 S12 30.12S DANBURY PTCLDY 67 62 84 SW5 30.15S WTRBRY/OXFORD CLOUDY 64 59 82 S6 30.16S BRIDGEPORT CLOUDY 65 61 87 SW5 30.14F MERIDEN CLOUDY 66 61 84 S9 30.14S NEW HAVEN CLOUDY 63 60 90 CALM 30.15F CHESTER FAIR 64 61 88 SW8 30.17S GROTON MOCLDY 60 56 86 S5 30.17S WILLIMANTIC CLOUDY 67 61 81 S8 30.15F IN RI CITY SKY/WX TMP DP RH WIND PRES REMARKS PROVIDENCE MOCLDY 66 59 78 S10 30.17S BLOCK ISLAND MOCLDY 59 55 88 SW13 30.20F WESTERLY CLOUDY 60 57 89 S9 30.19S IN MA CITY SKY/WX TMP DP RH WIND PRES REMARKS BOSTON CLOUDY 70 63 78 SW14 30.12S WORCESTER CLOUDY 66 62 87 SW14 30.14S WESTFIELD CLOUDY 67 64 90 S10 30.11S PROVINCETOWN PTCLDY 61 55 82 S13 30.18F NANTUCKET CLEAR 61 58 90 S13 30.23F $$ ANZ330-335-338-340-345-350-353-355-280500- COASTAL MARINE OBSERVATIONS STATION/POSITION TIME SKY/WX TEMP WIND PRES VSBY WAVE AIR SEA DIR/SP/G HT/PER (UTC) (F) (DEG/KT/KT) (MB) (MI) (FT/S) NY HARB ENTRANCE 0350 58 50 200/ 14/ 16 1021.1 4/ 6 4S FIRE IS 0303 56 N/A 5/ 6 20S FIRE ISLAND 0350 61 57 200/ 14/ 16 1021.9 5/ 6 GREAT SOUTH BAY 0300 64 67 240/ 16/ 21 N/A 23SW MTP 0350 58 54 220/ 8/ 10 1022.6 4/ 6 HUDSON CANYON NOT AVBL KINGS POINT 0300 65 58 180/ 5/ 7 1020.2 CENTRAL LI SOUND 0300 62 56 210/ 14/ 17 N/A EASTERN LI SOUND 0300 61 220/ 12/ 14 N/A ROBBINS REEF 0300 67 170/ 7/ 8 1019.6 $$ >>>>>>>>>>>>>>>>>>>>>>>>>>>> KEY <<<<<<<<<<<<<<<<<<<<<<<<<<< > < > SKY/WX - SKY CONDITION/PRESENT WEATHER < > TMP - TEMPERATURE IN FAHRENHEIT < > DP - DEWPOINT IN FAHRENHEIT < > RH - RELATIVE HUMIDITY IN PERCENT < > WIND - DIRECTION AND SPEED IN MPH < > PRES - MEAN SEA LEVEL PRESSURE IN INCHES OF HG < > WCI - WIND CHILL INDEX < > VSB - VISIBILITY IN MILES < > HX - HEAT INDEX < > TC - TEMPERATURE IN CELSIUS < > VRB - VARIABLE WIND DIRECTION < > < >>>>>>>>>>>>>>>>>>>>>>>>>>>> KEY <<<<<<<<<<<<<<<<<<<<<<<<<<<

USA.gov is the U.S. government's official web portal to all federal, state and local government web resources and services.